Карточка аэропорта UIAA

Внимание!
Информация на этой странице в стадии наполнения.
Если вы не увидели какой-то информации, или заметили неточность - пожалуйста сообщите нам!
Спасибо!
Команда RU-STAFF
Название аэропортаКадала
Название аэропорта (англ.)Kadala
Превышение2271 ft. (692.2 m.)
Координаты52°1.5779999999999', 113°18.3'
Высота перехода1800m
Эшелон переходаFL100
Коды ответчика3350-3377
Зона ОрВДИркутск РПИ (UIII)
Данные METARUIAA 121300Z 03003MPS 9999 SCT050CB 19/18 Q1006 R29/CLRD70 NOSIG RMK QFE696/0928
Проноз погоды (TAF)UIAA 121100Z 1212/1312 02003MPS 6000 BKN040CB TEMPO 1212/1215 -TSRA TEMPO 1215/1224 2000 BR FU
NOTAMshow/hide NOTAM
AWOS   TABLE

Информация о ВПП


Диспетчерские позиции

Позывной Наименование органа УВД Частота
UIAA_TWRЧита-Вышка118.2
UIAA_APPЧита-Подход122.0



Спутниковое изображение